Regional Weather Roundup
Issued by NWS

Home | Current Version | Previous Version | Graphics & Text | Print | Product List | Glossary On
Versions: 1 2 3 4 5 6 7 8 9 10 11 12 13 14 15 16 17 18 19 20 21 22 23 24 25 26 27 28 29 30 31 32 33 34 35 36 37 38 39 40 41 42 43 44 45 46 47 48 49 50
000
ASUS43 KBIS 191520
RWRND

NORTH DAKOTA REGIONAL WEATHER ROUNDUP
NATIONAL WEATHER SERVICE BISMARCK ND
1000 AM CDT SAT APR 19 2014

NOTE: "FAIR" INDICATES FEW OR NO CLOUDS BELOW 12,000 FEET WITH NO
SIGNIFICANT WEATHER AND/OR OBSTRUCTIONS TO VISIBILITY.


NDZ001>003-009>011-017-191600-
NORTHWEST NORTH DAKOTA

CITY           SKY/WX    TMP DP  RH WIND       PRES   REMARKS
WILLISTON      CLOUDY    42  36  79 W13G22    29.87R
MINOT          PTSUNNY   45  36  70 SW17G30   29.76R
MINOT AFB      MOSUNNY   45  40  80 W25G32    29.75R
$$

NDZ018>021-031>035-040>046-191600-
SOUTHWEST NORTH DAKOTA

CITY           SKY/WX    TMP DP  RH WIND       PRES   REMARKS
BISMARCK       SUNNY     53  27  36 W24G35    29.90R
DICKINSON      SUNNY     49  25  39 W24G33    29.88R
GARRISON         N/A     46  36  68 W31G37    29.83R
HETTINGER ARPT SUNNY     50  24  36 W23G30    29.95R
$$

NDZ004>008-012>016-024-026-027-054-191600-
NORTHEAST NORTH DAKOTA

CITY           SKY/WX    TMP DP  RH WIND       PRES   REMARKS
GRAND FORKS    MOSUNNY   54  40  59 SW15      29.79R
GRND FRKS AFB  SUNNY     54  40  59 W14       29.79R
DEVILS LAKE    SUNNY     48  36  61 W20       29.77R
$$

NDZ022-023-025-028>030-036>039-047>053-191600-
SOUTHEAST NORTH DAKOTA

CITY           SKY/WX    TMP DP  RH WIND       PRES   REMARKS
FARGO          PTSUNNY   55  41  59 SW12      29.85R
JAMESTOWN      SUNNY     53  34  48 W18       29.85R
$$




USA.gov is the U.S. government's official web portal to all federal, state and local government web resources and services.